Vorticity
21 21 22 20 17 13 10 7 6 7 10 12 12 11 6 6 9 14 20 20 15 8 -0 -0 3 6 8 6 6 6 9 12 13 12 10 9 7 6 4 5 4 3 2 5 7 10 14 20 22 20 14 9 5 4 3 4 5 6 6 4 1 -1 -2 -1 -1 8 37 29 17 8 9 10 11 12 13 13 14 13 11 8 7 7 6 6 6 6
22 22 22 23 20 16 13 8 7 8 10 12 13 13 9 7 8 11 17 20 18 13 5 2 3 5 5 5 5 6 9 12 13 12 11 10 9 7 6 4 3 1 1 4 6 7 10 16 20 21 18 12 8 6 4 4 5 6 6 5 3 1 -1 -0 -0 5 21 15 7 3 11 12 11 11 11 11 12 12 10 8 7 7 6 5 6 6
23 23 21 24 22 19 17 12 10 9 8 11 13 13 11 10 8 8 11 17 18 15 9 6 5 5 5 5 5 6 7 10 11 11 10 11 10 10 8 5 3 1 0 2 4 6 9 13 16 19 19 14 10 8 6 5 6 7 7 6 4 2 0 1 1 3 12 7 2 2 13 15 15 13 11 11 10 10 9 8 7 7 6 5 5 6
22 24 22 24 23 20 16 14 15 15 8 11 13 13 11 12 11 10 10 14 17 17 13 8 6 5 6 7 7 7 6 6 7 8 8 9 11 11 10 7 4 2 2 3 3 4 8 12 15 17 18 15 11 8 6 6 7 9 10 8 6 3 1 1 1 4 11 10 5 4 13 16 17 17 17 14 12 10 9 8 7 7 6 5 6 7
19 22 22 24 25 23 17 14 16 16 11 11 13 14 11 11 11 11 11 14 17 18 16 11 7 6 7 9 9 9 7 5 4 4 4 7 9 11 11 8 6 5 7 5 3 2 5 10 13 16 17 16 13 10 7 5 7 9 11 11 9 6 2 1 1 4 12 19 10 3 11 14 15 16 19 17 14 11 9 9 8 8 8 6 7 8
16 19 22 24 24 24 21 17 16 15 12 9 11 14 12 10 10 11 12 13 15 17 17 14 10 8 7 7 7 6 6 5 4 3 3 5 7 9 11 10 8 7 10 9 5 2 4 8 11 14 16 16 14 11 7 5 5 7 10 11 11 10 5 1 -0 3 15 23 12 1 8 12 13 13 15 15 14 12 7 9 9 9 9 7 7 9
15 17 23 23 22 22 24 22 20 17 15 12 11 12 14 10 9 11 12 13 14 16 18 16 13 11 9 4 2 1 3 5 5 5 5 6 7 8 11 11 9 9 12 12 8 5 5 8 11 13 15 16 15 13 9 6 5 6 8 10 11 11 9 3 -0 3 15 20 11 2 7 10 11 12 11 10 12 13 7 8 9 10 11 9 8 9
17 18 21 22 22 22 24 23 21 18 17 16 14 14 17 12 9 8 9 12 15 17 19 19 17 14 12 6 2 0 1 3 4 5 6 9 10 10 11 11 9 9 13 15 12 9 8 10 11 12 14 15 15 14 12 7 5 4 6 8 11 12 11 5 2 4 14 16 9 3 7 9 10 10 9 6 9 12 11 8 8 9 11 10 9 8
17 18 20 21 23 25 26 25 25 24 20 17 14 13 20 19 15 10 5 10 13 15 17 20 19 17 15 9 5 2 1 1 1 3 7 11 12 12 11 7 4 3 8 12 12 10 11 12 12 13 14 15 16 15 15 10 6 3 4 7 10 12 12 7 5 7 15 12 9 6 8 9 9 9 8 3 5 9 12 9 7 7 7 8 8 8
14 15 19 19 20 22 24 22 28 33 31 21 11 7 13 21 23 19 7 12 15 17 17 19 20 20 19 13 8 4 2 1 -0 1 5 10 12 12 11 6 -1 -6 -5 -1 3 6 10 12 12 12 13 14 15 16 17 14 9 5 2 5 9 13 14 8 5 7 14 11 9 7 8 8 8 8 7 5 6 8 11 10 9 7 5 6 8 9
15 14 16 16 18 18 12 14 22 32 38 25 13 4 4 14 22 22 9 8 17 25 24 21 21 23 25 18 13 8 4 3 4 6 9 11 12 11 9 6 3 -2 -9 -8 -5 0 7 10 11 11 12 13 14 16 18 17 13 8 3 4 8 12 14 9 5 4 9 8 7 7 9 10 10 10 10 12 14 15 17 17 14 11 8 10 13 15
15 15 14 12 13 15 14 16 19 26 36 28 17 9 5 10 16 17 9 -2 7 24 36 29 24 21 25 23 18 13 9 6 6 9 15 16 15 11 7 0 2 4 -1 -4 -3 1 6 9 10 10 11 11 13 14 17 18 16 11 4 3 5 10 15 10 4 -0 1 4 6 9 13 18 19 20 20 21 23 28 34 34 30 21 11 14 18 19
13 13 14 11 8 8 15 24 26 27 31 25 19 16 17 18 17 14 10 -3 -7 3 33 43 36 25 25 27 23 16 11 9 6 6 12 19 19 15 9 5 4 4 4 3 4 5 8 9 10 11 10 11 11 13 15 18 18 14 8 3 4 8 14 10 4 -2 -3 1 5 10 18 23 25 25 25 21 21 25 34 39 37 30 20 15 12 10
14 13 13 11 8 7 11 22 25 25 25 24 22 22 25 26 22 18 17 7 -6 -11 3 40 49 42 29 32 30 24 14 10 5 2 5 14 17 16 12 10 8 6 7 8 9 9 10 10 11 11 11 11 11 12 14 17 18 17 12 6 4 7 13 10 5 -1 -2 2 6 11 18 17 16 14 14 9 8 11 16 20 23 24 24 17 7 1
16 15 14 12 11 11 12 19 19 17 15 20 22 23 23 22 20 17 17 16 9 -4 -21 8 37 51 37 34 37 39 31 17 7 2 5 14 17 15 11 11 10 10 11 11 11 11 11 11 11 12 12 12 12 12 13 16 18 18 16 9 6 6 11 10 6 2 1 8 14 17 18 10 4 1 1 -0 1 3 6 8 12 17 21 13 5 1
16 14 13 12 11 11 13 16 16 14 12 16 20 22 21 19 17 15 12 18 19 9 -16 -19 5 29 31 18 25 41 56 37 19 8 8 19 20 14 9 8 9 10 11 10 11 11 12 12 12 13 13 12 12 12 13 15 17 19 18 12 7 5 7 7 5 4 5 18 27 29 22 10 3 0 -0 1 3 5 7 10 14 17 17 7 3 6
16 13 12 12 12 12 13 13 12 12 12 15 21 25 24 23 21 18 14 22 24 17 -5 -26 -28 -14 15 6 6 21 54 55 39 18 7 27 25 14 6 5 5 7 8 8 10 11 13 13 13 13 12 12 11 11 12 13 16 19 20 15 9 3 2 3 2 0 -2 22 41 47 30 17 11 9 9 9 9 9 10 13 14 13 8 1 2 10
14 13 14 12 12 12 13 13 12 12 12 13 18 23 25 23 21 19 16 21 26 23 4 -22 -40 -42 -19 -10 -2 10 30 49 45 28 9 28 27 18 11 7 7 7 8 9 10 11 13 13 13 13 12 11 11 11 11 12 14 17 20 18 13 6 2 1 1 -5 -21 -1 34 58 44 32 25 23 23 21 18 16 13 12 8 1 -7 -7 -4 3
14 14 13 12 12 13 13 12 12 13 13 12 14 18 23 23 22 20 17 15 20 23 17 -2 -26 -44 -48 -37 -20 -2 14 27 33 34 33 40 36 27 18 14 12 12 13 13 13 13 13 13 13 12 11 11 10 10 11 11 13 15 19 20 17 13 7 4 1 -5 -22 -25 -8 17 38 38 35 30 28 24 23 21 19 11 2 -7 -13 -10 -5 -2
15 14 11 13 15 15 13 11 12 13 12 11 11 13 18 26 30 29 22 20 20 20 20 12 -1 -17 -29 -28 -22 -11 5 14 22 28 33 42 37 26 21 17 16 16 17 18 18 17 15 14 13 12 11 10 10 9 9 10 12 14 16 19 20 18 14 8 3 -3 -10 -23 -27 -23 -12 6 12 11 7 4 8 15 24 16 5 -4 -8 -5 -2 0
15 12 11 13 14 14 13 13 13 12 11 9 8 8 11 21 27 30 28 32 30 27 22 13 7 0 -7 -17 -18 -13 -5 5 16 28 42 38 26 15 15 14 14 15 16 18 19 19 18 16 15 13 12 11 9 9 9 9 11 13 15 17 19 19 18 14 7 -1 -5 -11 -16 -22 -35 -30 -24 -18 -13 -10 -6 4 22 19 10 1 -4 -2 0 3
14 14 15 14 13 12 14 14 14 13 12 9 7 6 7 15 20 23 29 36 34 29 26 18 14 11 7 -6 -12 -15 -18 -10 6 28 50 39 21 6 4 6 8 9 9 14 17 19 18 17 16 15 13 12 10 9 8 8 10 11 13 15 17 19 19 17 13 7 -0 -3 -3 -4 -11 -21 -25 -24 -17 -10 -5 2 14 17 11 3 -4 -3 -0 3
12 14 17 15 15 14 15 14 14 13 11 7 3 1 1 10 16 22 30 38 40 38 33 26 23 22 18 5 -3 -10 -18 -14 1 24 48 41 22 4 0 2 3 4 3 9 14 18 18 17 17 16 15 13 11 10 8 8 9 10 11 13 15 18 20 19 17 14 7 3 3 5 8 3 -1 -5 -5 -1 2 5 9 15 15 10 1 -1 -0 3
11 13 15 16 17 17 17 15 15 14 11 6 0 -4 -3 5 12 18 24 32 40 44 41 34 28 22 18 11 5 -1 -8 -7 3 18 39 34 21 7 4 3 3 3 1 7 12 16 18 17 17 17 16 15 13 11 9 8 8 8 9 10 12 15 18 19 19 17 14 11 9 8 10 11 11 10 9 9 9 8 9 14 18 16 5 -3 -2 3
13 14 15 17 18 19 18 16 15 14 11 6 0 -3 -2 7 13 16 19 21 26 30 35 32 28 25 26 20 15 9 4 5 10 18 31 28 21 12 6 4 4 4 4 9 13 15 16 16 16 16 16 16 14 12 10 9 8 7 8 9 10 12 14 15 16 17 19 17 15 13 11 11 12 12 12 12 11 11 11 17 20 16 2 -9 -5 4
15 15 17 18 20 20 20 18 16 14 11 5 -1 -4 -2 9 17 20 19 18 21 26 31 28 27 28 32 26 20 13 8 7 13 24 39 31 24 16 7 3 3 5 7 11 14 15 14 15 16 16 16 16 15 13 11 10 8 7 7 7 8 9 11 11 12 14 18 18 17 16 14 13 12 11 10 10 10 10 11 20 20 11 -10 -15 -8 4
16 17 18 19 21 22 22 21 18 15 10 3 -2 -5 -3 7 16 21 22 20 22 27 31 29 28 26 24 22 19 16 12 4 6 22 53 36 23 14 8 4 3 4 7 9 11 13 13 14 16 17 16 16 16 15 13 11 9 8 7 7 7 8 9 8 8 10 14 16 17 18 18 16 14 12 10 9 9 9 11 18 17 7 -15 -14 -5 5
15 15 17 18 21 23 24 24 21 17 11 3 -2 -5 -3 6 15 20 19 15 16 20 25 27 27 24 16 14 16 18 19 3 -1 13 54 41 24 12 13 8 5 4 6 7 8 10 10 13 15 17 16 16 16 15 14 12 11 9 8 7 7 7 7 6 5 6 9 11 13 16 19 19 18 16 14 12 11 11 12 16 14 6 -10 -6 1 7
12 12 13 15 17 20 24 25 24 20 13 5 -1 -4 -3 7 17 22 17 14 14 16 21 23 26 25 17 12 16 22 25 6 -3 9 53 40 22 10 16 11 7 6 6 8 10 10 8 11 14 16 16 16 16 15 14 13 12 11 10 9 8 8 8 6 5 4 5 6 7 10 14 17 18 19 17 16 14 14 14 16 14 10 2 4 7 9
12 11 10 11 13 16 20 24 25 24 18 9 2 -3 -4 7 16 22 18 15 12 12 18 23 26 26 18 13 17 23 22 4 1 15 51 29 15 10 16 10 7 8 10 13 14 13 9 11 13 15 17 17 16 15 14 12 11 11 10 9 9 9 10 9 8 6 5 5 5 6 7 10 12 13 13 14 15 15 16 16 16 14 11 12 12 12
17 14 12 11 11 13 16 20 23 24 22 16 8 2 -2 6 15 21 22 15 7 3 11 23 30 29 20 16 17 16 8 -2 5 21 37 19 12 11 12 6 6 9 13 15 15 14 12 13 14 16 16 16 16 15 14 13 12 11 10 9 8 8 9 10 10 8 6 7 7 7 7 7 6 6 5 7 9 12 13 13 14 13 13 15 16 14
20 19 16 14 13 14 16 18 20 21 21 18 13 7 2 7 14 20 23 14 1 -5 4 24 36 36 22 17 12 7 -0 -5 7 21 24 16 13 12 6 -1 1 9 15 13 12 13 15 15 15 16 16 16 16 15 14 12 12 12 11 9 7 7 7 8 9 9 8 9 9 9 9 8 7 5 4 3 4 6 8 9 9 9 11 14 16 16
20 20 19 17 16 16 17 18 19 19 19 17 14 10 5 8 13 18 21 14 3 -4 3 26 41 41 23 13 5 0 -3 -7 6 21 21 16 17 17 8 -6 -5 5 15 14 11 10 13 16 16 15 14 15 16 16 14 11 11 11 12 9 7 6 6 5 7 9 8 9 9 10 10 9 9 9 7 6 4 4 5 6 7 9 11 14 15 13
17 19 19 18 17 17 18 19 20 19 18 17 14 11 7 8 11 14 16 14 7 2 5 24 38 42 27 11 3 -3 -8 -13 0 17 25 18 19 20 13 -3 -5 1 10 13 13 12 11 16 17 16 13 14 15 15 15 11 10 10 11 9 8 6 5 4 5 7 7 7 7 7 7 8 8 9 9 8 7 6 5 6 8 10 13 16 14 9
11 13 16 18 19 19 19 20 20 20 19 18 16 13 10 9 10 11 10 9 9 10 12 22 31 33 20 13 7 1 -11 -16 -7 10 27 21 20 20 16 3 -1 -1 4 9 12 13 11 14 17 18 15 13 13 14 15 13 11 10 10 10 9 7 5 4 3 4 5 5 5 5 5 6 7 8 9 9 8 8 7 6 7 9 14 16 14 9
6 7 10 16 20 22 21 20 20 21 20 19 18 15 12 11 11 10 7 1 5 14 24 25 26 24 14 8 3 1 1 -7 -7 2 20 17 19 22 21 12 6 1 0 5 10 12 11 10 14 17 17 14 12 12 14 14 12 11 9 9 9 8 7 5 4 3 2 2 2 3 3 5 6 7 8 8 8 8 8 7 7 9 13 16 15 12
5 3 3 10 18 23 22 20 20 20 20 20 19 18 15 13 12 10 6 -1 2 13 31 32 27 18 6 -1 -6 -5 6 1 -4 -4 8 9 14 21 27 21 12 4 -1 2 7 11 11 9 10 12 14 15 14 12 11 11 11 11 10 9 8 8 7 7 6 5 4 3 3 3 3 3 4 6 7 7 7 7 7 8 8 9 11 16 18 17
8 3 0 4 12 20 23 21 19 19 19 19 20 19 18 16 14 10 6 1 4 15 32 35 30 20 10 -2 -9 -10 -1 -0 -5 -9 -4 1 9 20 32 28 19 8 -1 -1 4 10 13 10 9 9 11 14 15 15 12 10 10 10 10 9 9 8 7 7 7 7 6 6 5 5 5 5 5 7 7 7 7 6 7 8 8 9 11 15 19 20
12 7 1 1 8 17 24 22 20 17 17 18 19 19 19 18 15 11 7 6 11 21 34 34 29 24 23 7 -3 -6 -0 3 -1 -8 -12 -5 6 22 40 35 26 15 4 -1 4 11 15 14 11 10 10 11 13 15 15 14 12 11 9 9 11 11 10 9 8 7 7 7 6 6 6 7 7 8 8 8 7 7 7 7 7 7 8 10 14 17
15 10 4 3 8 17 26 24 21 18 16 17 18 19 20 19 16 13 9 11 17 26 35 32 27 26 31 19 6 -1 3 10 8 -0 -11 -8 6 25 43 38 31 22 12 4 5 9 15 15 15 13 11 11 11 13 14 15 14 13 11 10 11 11 9 9 8 7 7 7 7 6 6 7 7 8 8 9 9 9 8 7 7 6 8 9 10 11
14 11 7 7 12 20 28 26 22 18 17 17 17 18 19 17 16 14 13 16 21 27 34 32 29 27 31 24 14 5 6 16 17 11 -4 -6 8 27 43 34 26 20 17 12 10 10 13 15 15 15 14 12 11 10 11 13 14 14 14 13 11 9 7 7 7 7 7 7 7 7 7 7 7 7 8 9 10 11 11 10 9 8 8 11 13 12
11 10 8 8 15 23 30 26 22 18 17 17 17 17 16 15 15 16 18 19 18 19 26 31 30 28 30 27 19 10 5 17 23 21 7 -1 10 27 40 24 10 5 15 14 12 11 15 16 16 16 16 15 14 12 10 12 13 14 16 16 14 13 13 13 11 9 8 8 7 7 7 7 7 7 8 9 10 10 11 13 12 10 7 10 11 11
10 10 10 11 19 27 30 24 20 17 18 18 17 16 15 15 16 17 21 21 12 6 15 26 28 29 33 30 28 20 3 9 19 23 13 1 9 24 33 15 -2 -8 5 10 10 9 11 16 17 16 17 18 17 14 13 12 12 14 16 18 17 15 14 12 9 8 9 9 8 7 7 7 7 8 9 10 11 11 12 13 12 11 7 7 7 8
11 11 10 16 24 29 27 19 15 16 18 19 19 18 17 17 17 19 20 17 8 3 8 17 22 25 29 27 26 22 14 12 17 20 12 1 6 18 27 10 -3 -7 -0 4 7 9 10 11 12 14 18 21 20 17 15 15 14 14 15 18 20 21 19 9 4 4 8 9 9 9 9 9 10 11 14 15 14 14 14 12 11 10 9 7 7 8
10 9 10 17 26 31 27 18 14 14 20 23 22 20 18 17 17 17 15 12 7 4 6 12 16 19 23 23 20 16 9 12 17 19 12 1 5 16 26 12 -0 -5 0 1 3 6 9 10 10 11 16 18 18 17 16 17 17 17 16 16 19 22 25 22 18 14 12 11 11 12 12 12 13 15 17 17 15 12 12 10 10 11 13 12 13 13
8 7 8 15 25 33 32 22 15 14 20 27 27 22 17 16 15 13 12 10 9 9 9 14 17 19 19 20 17 13 7 16 21 20 7 1 8 21 32 19 6 -3 -2 1 2 3 4 6 8 11 14 15 13 12 13 15 17 17 17 16 17 19 22 22 22 22 21 18 17 16 15 14 15 15 16 16 14 13 13 12 12 12 12 10 9 9
6 6 7 11 22 31 35 26 18 13 15 26 29 26 18 15 13 10 8 10 13 15 16 16 19 21 20 18 14 12 11 23 27 20 0 -1 10 24 35 28 15 1 -5 -1 2 4 5 3 4 5 10 13 13 10 9 12 15 16 16 16 17 19 19 19 19 20 21 20 19 17 15 14 14 13 11 11 13 14 15 14 13 11 6 1 -0 1
5 5 6 10 18 26 32 27 20 15 11 17 24 28 25 19 13 10 8 13 19 23 23 20 20 19 19 16 13 11 11 25 28 19 -6 -1 11 23 32 33 23 8 -6 -5 -1 3 6 7 6 4 2 7 11 11 8 9 11 13 14 15 16 18 18 17 17 17 16 16 15 14 13 13 11 7 2 3 7 12 15 14 12 9 4 0 -1 1
5 5 5 8 13 20 26 25 22 16 11 11 17 24 29 23 17 12 12 19 26 30 29 25 20 17 15 14 12 11 14 26 28 16 -12 1 12 20 24 31 28 17 -1 -6 -5 -1 4 8 9 8 3 1 2 5 7 6 7 8 11 13 15 17 17 16 15 15 14 13 11 10 10 13 12 7 -1 -3 -2 2 6 12 11 9 7 3 2 2
5 5 5 6 9 13 19 22 21 18 13 12 16 22 26 24 19 14 14 22 29 32 30 26 21 16 15 14 13 13 18 27 24 11 -13 2 13 19 18 27 32 28 13 -4 -8 -4 1 4 10 15 16 9 1 -4 1 4 5 6 8 12 15 16 14 13 14 15 15 14 10 7 6 11 12 10 3 1 -3 -7 -8 4 9 11 12 10 8 8
5 5 4 5 6 9 14 18 19 18 15 15 17 21 23 22 20 18 16 21 26 28 28 26 21 16 13 13 14 16 21 27 20 5 -15 -1 13 21 15 22 32 37 29 5 -5 -7 -6 1 12 24 31 32 21 10 7 8 8 8 10 15 16 16 13 12 14 17 20 19 15 11 7 10 12 11 5 6 1 -5 -9 0 8 13 16 17 19 20
Height
2908 2909 2911 2914 2915 2918 2920 2922 2924 2927 2930 2934 2936 2939 2941 2943 2945 2947 2950 2954 2957 2960 2963 2966 2968 2971 2974 2978 2981 2984 2987 2990 2992 2994 2997 3000 3003 3005 3008 3010 3013 3015 3017 3019 3020 3023 3025 3028 3030 3032 3034 3037 3040 3043 3045 3048 3050 3053 3055 3057 3060 3062 3064 3066 3067 3068 3068 3068 3071 3075 3078 3080 3083 3084 3087 3089 3091 3093 3095 3097 3099 3101 3104 3106 3108 3110
2905 2907 2910 2912 2914 2915 2918 2920 2923 2926 2928 2930 2933 2936 2939 2941 2943 2945 2947 2951 2954 2957 2960 2963 2966 2969 2972 2976 2979 2982 2985 2987 2989 2992 2995 2997 3000 3003 3005 3008 3010 3012 3014 3016 3018 3020 3023 3025 3027 3029 3031 3034 3038 3040 3043 3046 3048 3050 3053 3055 3058 3060 3063 3064 3066 3066 3067 3068 3071 3074 3076 3079 3081 3083 3085 3087 3089 3091 3093 3095 3097 3099 3102 3104 3106 3108
2904 2906 2908 2910 2911 2914 2916 2919 2922 2924 2925 2928 2930 2933 2936 2939 2941 2943 2945 2949 2952 2955 2958 2961 2964 2967 2970 2973 2977 2979 2982 2984 2987 2989 2992 2995 2998 3000 3003 3006 3008 3010 3012 3014 3016 3018 3021 3023 3024 3026 3029 3032 3035 3038 3041 3044 3046 3049 3051 3054 3056 3059 3061 3063 3064 3065 3066 3068 3070 3073 3075 3077 3079 3081 3083 3085 3088 3089 3091 3093 3095 3098 3100 3102 3104 3106
2903 2904 2906 2908 2909 2911 2914 2917 2919 2921 2923 2925 2928 2931 2934 2937 2939 2942 2944 2946 2949 2953 2956 2958 2961 2964 2967 2970 2974 2976 2979 2981 2984 2986 2989 2992 2995 2998 3001 3003 3006 3008 3010 3012 3014 3016 3018 3019 3021 3023 3026 3029 3033 3035 3039 3042 3044 3047 3049 3052 3054 3057 3059 3061 3063 3064 3065 3067 3069 3071 3073 3075 3077 3079 3082 3084 3086 3088 3090 3092 3094 3096 3098 3100 3102 3104
2902 2903 2904 2906 2908 2910 2912 2915 2917 2919 2922 2924 2928 2931 2934 2936 2938 2940 2942 2945 2948 2951 2954 2956 2959 2962 2965 2968 2971 2973 2975 2978 2981 2984 2987 2990 2993 2996 2998 3001 3003 3005 3008 3009 3011 3013 3015 3017 3019 3021 3024 3027 3030 3033 3036 3039 3042 3045 3048 3050 3053 3055 3057 3060 3062 3063 3064 3065 3067 3069 3071 3073 3075 3078 3080 3082 3084 3086 3088 3090 3092 3094 3096 3098 3100 3102
2900 2901 2903 2904 2907 2908 2910 2913 2916 2918 2920 2924 2926 2929 2931 2933 2936 2939 2942 2944 2947 2949 2952 2954 2957 2960 2963 2965 2968 2970 2973 2975 2979 2982 2985 2988 2991 2994 2996 2999 3001 3003 3004 3006 3008 3010 3013 3015 3017 3019 3022 3025 3028 3031 3034 3037 3040 3043 3045 3048 3051 3054 3056 3058 3060 3062 3063 3064 3065 3068 3069 3071 3073 3075 3078 3080 3082 3084 3086 3088 3090 3092 3094 3096 3098 3100
2899 2900 2902 2903 2905 2906 2909 2912 2914 2917 2919 2922 2924 2925 2927 2930 2934 2937 2940 2942 2944 2946 2949 2952 2954 2958 2960 2963 2965 2968 2971 2974 2977 2980 2983 2986 2989 2991 2994 2997 2999 3000 3002 3003 3005 3009 3012 3014 3016 3018 3020 3023 3026 3029 3032 3035 3037 3040 3043 3046 3049 3051 3054 3057 3059 3060 3060 3061 3064 3066 3068 3070 3071 3073 3075 3078 3080 3082 3084 3085 3088 3090 3092 3094 3095 3097
2897 2899 2901 2902 2904 2905 2908 2911 2913 2915 2916 2918 2920 2922 2925 2928 2931 2934 2937 2939 2942 2944 2947 2950 2953 2955 2958 2960 2963 2965 2968 2971 2975 2978 2981 2984 2987 2989 2992 2994 2997 2998 2999 3001 3004 3008 3010 3012 3014 3016 3019 3021 3024 3027 3030 3033 3035 3038 3041 3044 3047 3049 3052 3055 3057 3059 3059 3061 3063 3065 3066 3068 3069 3071 3073 3075 3078 3080 3081 3083 3085 3087 3089 3091 3093 3095
2896 2898 2899 2900 2902 2905 2907 2909 2911 2912 2913 2914 2917 2920 2923 2925 2928 2930 2933 2937 2940 2942 2944 2947 2950 2953 2955 2957 2959 2963 2965 2969 2972 2975 2978 2981 2984 2987 2990 2992 2994 2996 2998 3000 3003 3006 3008 3010 3012 3014 3017 3020 3023 3025 3028 3031 3034 3037 3039 3042 3045 3048 3050 3053 3055 3057 3058 3060 3061 3063 3064 3066 3068 3069 3071 3073 3075 3077 3079 3081 3083 3085 3087 3089 3091 3092
2895 2896 2898 2899 2901 2904 2906 2907 2908 2908 2909 2912 2915 2918 2920 2922 2924 2927 2930 2934 2937 2939 2941 2944 2947 2949 2952 2954 2957 2960 2963 2966 2969 2972 2975 2979 2982 2985 2988 2990 2992 2994 2996 2999 3002 3004 3006 3008 3010 3013 3016 3018 3021 3024 3027 3029 3032 3035 3038 3041 3043 3046 3049 3051 3053 3055 3056 3058 3059 3060 3062 3064 3066 3067 3069 3071 3073 3074 3076 3079 3080 3082 3085 3087 3089 3090
2894 2895 2897 2899 2901 2903 2904 2905 2905 2906 2908 2911 2914 2916 2919 2920 2923 2925 2928 2931 2934 2936 2939 2941 2944 2947 2949 2953 2956 2959 2962 2964 2968 2970 2973 2976 2979 2983 2986 2988 2989 2992 2994 2997 3000 3002 3004 3006 3009 3011 3014 3017 3019 3022 3025 3028 3030 3034 3036 3039 3041 3044 3046 3049 3051 3053 3054 3056 3057 3059 3060 3062 3064 3065 3067 3069 3071 3072 3074 3076 3078 3080 3083 3085 3087 3088
2892 2894 2895 2897 2899 2901 2903 2902 2903 2904 2908 2911 2914 2916 2919 2920 2922 2924 2927 2929 2932 2934 2937 2939 2941 2945 2948 2951 2954 2957 2960 2963 2966 2969 2971 2974 2976 2980 2984 2986 2987 2989 2992 2995 2998 3000 3003 3005 3007 3009 3012 3015 3018 3021 3023 3026 3029 3032 3035 3037 3040 3042 3044 3047 3049 3051 3053 3054 3055 3057 3058 3059 3061 3063 3065 3067 3069 3071 3072 3074 3076 3079 3081 3084 3085 3087
2891 2892 2894 2895 2897 2898 2899 2900 2902 2905 2909 2911 2913 2915 2916 2918 2919 2921 2924 2927 2930 2933 2935 2936 2939 2943 2946 2949 2952 2955 2958 2961 2964 2967 2969 2972 2974 2977 2981 2983 2984 2987 2990 2993 2995 2998 3000 3003 3005 3008 3010 3013 3016 3019 3022 3024 3027 3030 3033 3035 3038 3040 3043 3045 3047 3049 3051 3052 3054 3055 3056 3057 3059 3061 3063 3065 3067 3069 3071 3073 3075 3078 3080 3082 3084 3086
2890 2891 2892 2894 2895 2897 2898 2900 2902 2905 2907 2908 2910 2911 2912 2914 2916 2919 2921 2924 2928 2931 2933 2935 2937 2940 2944 2948 2951 2954 2956 2959 2962 2965 2968 2970 2972 2974 2978 2980 2982 2985 2988 2990 2993 2996 2999 3001 3003 3006 3009 3012 3014 3017 3020 3022 3025 3028 3031 3034 3036 3039 3041 3043 3045 3047 3048 3050 3052 3054 3054 3055 3057 3059 3062 3064 3066 3068 3070 3072 3074 3077 3079 3082 3084 3085
2888 2889 2891 2892 2894 2895 2897 2899 2901 2903 2904 2906 2907 2909 2910 2913 2916 2919 2920 2922 2924 2927 2930 2933 2935 2937 2941 2944 2948 2951 2954 2957 2960 2964 2967 2968 2969 2972 2975 2977 2980 2983 2986 2989 2991 2994 2996 2999 3001 3004 3007 3010 3013 3015 3018 3020 3023 3026 3029 3032 3034 3037 3039 3041 3043 3045 3047 3048 3050 3052 3053 3054 3056 3059 3061 3063 3064 3067 3069 3071 3073 3075 3078 3080 3082 3084
2887 2888 2889 2891 2892 2894 2896 2897 2899 2901 2903 2905 2907 2909 2912 2914 2916 2918 2919 2920 2922 2925 2928 2930 2932 2934 2938 2941 2944 2947 2951 2954 2958 2962 2965 2966 2967 2970 2973 2974 2977 2981 2984 2986 2989 2992 2994 2997 3000 3002 3005 3008 3011 3014 3016 3019 3021 3024 3027 3029 3032 3035 3037 3039 3041 3043 3044 3047 3048 3049 3051 3053 3055 3058 3059 3061 3064 3065 3068 3070 3072 3074 3077 3079 3080 3082
2886 2887 2888 2890 2891 2893 2894 2896 2898 2900 2902 2904 2906 2908 2910 2912 2913 2914 2916 2918 2920 2923 2926 2927 2929 2932 2934 2937 2940 2943 2947 2951 2955 2959 2962 2964 2966 2968 2970 2973 2976 2979 2981 2984 2987 2990 2993 2995 2998 3000 3003 3006 3009 3012 3014 3017 3019 3022 3024 3027 3030 3033 3035 3037 3039 3041 3042 3044 3046 3047 3049 3051 3054 3056 3058 3060 3062 3064 3067 3069 3071 3074 3076 3077 3079 3080
2885 2886 2887 2889 2890 2891 2893 2895 2897 2899 2901 2903 2904 2906 2907 2909 2910 2912 2914 2917 2919 2922 2924 2925 2927 2929 2933 2935 2938 2940 2943 2947 2951 2955 2958 2961 2963 2965 2967 2971 2974 2977 2979 2982 2985 2988 2991 2993 2996 2999 3001 3004 3007 3009 3012 3014 3017 3019 3022 3025 3028 3030 3033 3035 3037 3039 3041 3043 3044 3045 3046 3049 3051 3053 3055 3058 3060 3063 3065 3068 3070 3072 3074 3076 3077 3079
2884 2885 2886 2888 2889 2890 2892 2894 2896 2898 2899 2901 2903 2904 2906 2908 2910 2912 2914 2916 2918 2919 2920 2922 2925 2928 2932 2934 2936 2938 2941 2944 2946 2949 2954 2958 2960 2962 2965 2969 2973 2975 2978 2980 2983 2986 2989 2991 2994 2997 2999 3002 3005 3007 3010 3012 3015 3017 3020 3023 3026 3028 3031 3033 3035 3037 3039 3041 3043 3044 3045 3047 3050 3052 3054 3057 3060 3062 3064 3067 3069 3070 3072 3074 3076 3077
2883 2884 2885 2887 2888 2889 2891 2893 2894 2896 2898 2899 2901 2903 2905 2907 2909 2910 2912 2914 2915 2916 2917 2919 2923 2926 2930 2933 2935 2938 2940 2942 2944 2946 2949 2953 2956 2959 2964 2967 2970 2973 2975 2978 2980 2983 2986 2989 2992 2994 2997 3000 3002 3005 3008 3010 3013 3015 3018 3020 3024 3026 3029 3031 3033 3034 3036 3039 3041 3044 3045 3047 3049 3052 3054 3056 3059 3061 3063 3065 3067 3069 3070 3072 3074 3076
2882 2883 2884 2885 2887 2888 2889 2891 2893 2895 2897 2899 2901 2903 2904 2905 2907 2908 2909 2910 2912 2914 2916 2918 2921 2924 2927 2930 2933 2936 2939 2940 2942 2943 2945 2949 2952 2956 2961 2964 2967 2970 2973 2975 2978 2981 2984 2986 2989 2992 2995 2997 3000 3003 3005 3008 3010 3013 3016 3018 3021 3024 3026 3029 3030 3032 3034 3037 3040 3043 3045 3047 3049 3051 3053 3055 3058 3060 3062 3064 3064 3066 3068 3070 3072 3074
2881 2882 2884 2884 2886 2887 2888 2890 2892 2894 2896 2898 2900 2902 2903 2904 2905 2906 2907 2909 2911 2913 2915 2917 2919 2921 2925 2929 2932 2935 2938 2939 2940 2941 2943 2946 2950 2954 2958 2961 2964 2967 2970 2973 2976 2979 2981 2984 2987 2990 2993 2995 2998 3000 3003 3006 3008 3011 3014 3016 3019 3022 3024 3026 3028 3030 3033 3035 3038 3041 3043 3046 3048 3050 3052 3054 3056 3058 3060 3061 3063 3064 3066 3069 3071 3073
2880 2881 2883 2884 2884 2886 2887 2889 2891 2893 2894 2896 2898 2900 2901 2903 2904 2905 2906 2908 2910 2911 2913 2914 2916 2919 2924 2928 2931 2934 2937 2938 2939 2941 2943 2945 2948 2951 2955 2958 2962 2965 2968 2970 2973 2976 2979 2982 2984 2988 2990 2993 2996 2998 3001 3004 3006 3009 3012 3014 3017 3019 3022 3024 3026 3029 3031 3033 3036 3039 3042 3044 3046 3049 3050 3052 3054 3056 3058 3059 3061 3062 3064 3067 3069 3071
2880 2881 2882 2883 2884 2885 2886 2888 2889 2891 2893 2895 2897 2899 2900 2902 2902 2903 2904 2906 2908 2909 2911 2913 2916 2919 2923 2926 2929 2932 2935 2937 2939 2941 2942 2943 2945 2948 2952 2956 2959 2962 2965 2968 2970 2974 2976 2979 2982 2985 2988 2990 2993 2996 2999 3001 3004 3007 3010 3012 3015 3018 3019 3022 3024 3027 3029 3032 3034 3037 3040 3042 3044 3046 3048 3050 3052 3054 3055 3057 3059 3060 3063 3065 3067 3069
2879 2880 2881 2882 2883 2884 2885 2887 2888 2890 2892 2894 2896 2898 2899 2901 2902 2903 2904 2905 2907 2909 2910 2913 2915 2918 2920 2924 2927 2930 2933 2936 2938 2940 2941 2941 2943 2947 2951 2954 2957 2960 2963 2965 2969 2971 2974 2977 2980 2983 2985 2988 2990 2993 2996 2999 3002 3005 3008 3010 3013 3015 3017 3020 3023 3025 3028 3030 3032 3035 3037 3039 3042 3044 3046 3048 3049 3051 3053 3055 3057 3058 3061 3063 3065 3068
2878 2879 2880 2881 2882 2883 2884 2886 2887 2889 2891 2893 2895 2897 2898 2899 2900 2902 2903 2905 2907 2909 2910 2912 2913 2915 2918 2921 2925 2929 2932 2935 2937 2939 2939 2940 2942 2945 2949 2952 2954 2957 2960 2964 2967 2969 2972 2974 2978 2980 2983 2985 2988 2991 2994 2997 3000 3003 3006 3008 3010 3013 3015 3018 3020 3023 3026 3028 3030 3032 3034 3036 3039 3041 3043 3045 3047 3049 3051 3053 3055 3057 3059 3061 3064 3066
2878 2878 2879 2880 2881 2882 2883 2885 2886 2888 2890 2892 2894 2896 2897 2898 2899 2901 2902 2904 2905 2907 2908 2910 2912 2914 2917 2921 2924 2928 2931 2934 2936 2937 2937 2939 2941 2944 2947 2950 2953 2955 2959 2962 2964 2967 2969 2972 2975 2978 2980 2983 2986 2989 2992 2995 2998 3001 3004 3006 3009 3011 3013 3016 3018 3021 3024 3026 3028 3030 3032 3034 3036 3038 3041 3043 3045 3047 3049 3051 3054 3055 3057 3059 3062 3064
2877 2878 2879 2879 2880 2881 2882 2884 2885 2887 2889 2891 2893 2894 2896 2897 2899 2900 2901 2902 2904 2906 2907 2909 2911 2914 2917 2920 2923 2926 2930 2933 2934 2934 2935 2937 2940 2943 2946 2948 2951 2954 2957 2959 2961 2964 2967 2969 2972 2975 2978 2980 2984 2987 2990 2993 2996 2999 3001 3004 3006 3009 3011 3014 3016 3019 3021 3024 3026 3028 3030 3032 3034 3036 3038 3040 3043 3044 3047 3049 3051 3054 3055 3057 3059 3061
2877 2877 2878 2879 2879 2880 2881 2883 2884 2886 2888 2890 2892 2893 2895 2896 2897 2899 2900 2901 2903 2905 2907 2908 2910 2913 2915 2918 2921 2925 2929 2931 2932 2933 2933 2935 2939 2941 2944 2947 2950 2952 2954 2956 2959 2962 2964 2967 2970 2972 2975 2978 2981 2984 2988 2990 2993 2996 2999 3002 3005 3007 3009 3012 3014 3017 3019 3022 3024 3026 3028 3030 3032 3034 3036 3038 3040 3043 3045 3047 3049 3052 3054 3055 3057 3059
2877 2877 2878 2879 2879 2880 2881 2882 2883 2885 2887 2889 2890 2892 2894 2895 2896 2898 2899 2901 2903 2904 2906 2907 2909 2912 2914 2918 2921 2925 2928 2930 2930 2930 2931 2934 2937 2940 2942 2946 2949 2950 2952 2954 2957 2959 2962 2964 2967 2970 2973 2975 2979 2982 2984 2988 2990 2994 2997 3000 3003 3005 3008 3010 3013 3015 3018 3020 3023 3025 3027 3029 3030 3032 3034 3037 3039 3041 3043 3045 3047 3049 3051 3053 3055 3057
2876 2877 2878 2878 2879 2879 2880 2881 2882 2884 2885 2887 2889 2891 2892 2894 2896 2897 2899 2900 2901 2903 2904 2906 2908 2911 2914 2917 2920 2924 2926 2928 2928 2928 2929 2933 2935 2938 2941 2944 2947 2948 2950 2952 2954 2957 2959 2962 2964 2967 2970 2973 2976 2979 2982 2985 2988 2991 2994 2997 3000 3003 3006 3008 3010 3013 3015 3018 3021 3023 3025 3027 3029 3031 3033 3035 3037 3039 3041 3043 3045 3047 3049 3051 3053 3054
2876 2877 2877 2878 2879 2879 2880 2880 2881 2883 2884 2886 2888 2889 2891 2893 2894 2896 2898 2899 2900 2901 2903 2905 2907 2910 2913 2916 2919 2921 2924 2925 2926 2927 2928 2931 2934 2936 2940 2943 2945 2947 2949 2951 2952 2954 2957 2959 2962 2965 2967 2970 2973 2976 2979 2983 2986 2989 2991 2994 2998 3001 3003 3005 3007 3010 3013 3016 3019 3021 3023 3025 3028 3030 3032 3034 3036 3038 3040 3041 3043 3044 3046 3048 3050 3053
2876 2876 2877 2878 2878 2879 2879 2880 2881 2882 2883 2885 2886 2888 2890 2892 2894 2895 2896 2898 2899 2900 2902 2904 2906 2909 2912 2915 2917 2919 2922 2924 2924 2925 2927 2929 2932 2935 2939 2941 2943 2945 2948 2949 2951 2953 2955 2958 2960 2963 2965 2967 2970 2973 2977 2980 2983 2986 2989 2991 2994 2998 3000 3002 3004 3007 3009 3013 3015 3018 3020 3023 3026 3028 3030 3032 3034 3036 3038 3040 3042 3043 3044 3047 3049 3051
2876 2876 2876 2877 2878 2878 2879 2879 2880 2881 2882 2884 2885 2887 2889 2891 2893 2894 2896 2897 2899 2899 2901 2902 2904 2908 2911 2913 2915 2918 2920 2922 2923 2924 2925 2928 2931 2934 2937 2939 2941 2943 2945 2947 2949 2951 2953 2956 2959 2961 2963 2965 2968 2971 2974 2978 2981 2983 2986 2989 2992 2994 2996 2998 3001 3003 3006 3009 3012 3015 3017 3020 3023 3025 3028 3030 3032 3034 3037 3039 3040 3042 3044 3046 3048 3049
2875 2876 2876 2876 2877 2877 2878 2879 2879 2880 2882 2883 2884 2886 2888 2890 2891 2893 2895 2896 2898 2899 2900 2901 2904 2906 2909 2912 2914 2916 2918 2919 2921 2922 2924 2926 2929 2932 2935 2937 2939 2941 2943 2945 2947 2949 2951 2954 2956 2958 2960 2963 2966 2969 2972 2975 2978 2981 2984 2987 2989 2992 2994 2996 2998 3000 3003 3006 3009 3012 3014 3017 3019 3022 3024 3027 3029 3032 3034 3036 3038 3040 3043 3045 3047 3048
2875 2875 2876 2876 2876 2877 2877 2878 2879 2880 2881 2882 2884 2885 2887 2889 2890 2892 2894 2895 2897 2899 2900 2901 2903 2905 2908 2910 2913 2914 2916 2917 2919 2921 2923 2925 2928 2931 2934 2935 2937 2939 2941 2944 2945 2947 2949 2951 2953 2956 2959 2961 2964 2967 2969 2972 2975 2979 2982 2984 2987 2990 2992 2994 2996 2999 3001 3004 3007 3010 3012 3014 3017 3019 3022 3024 3027 3029 3032 3034 3036 3038 3040 3043 3045 3047
2875 2875 2876 2876 2876 2876 2877 2877 2878 2879 2880 2881 2883 2884 2886 2888 2889 2891 2893 2894 2896 2898 2899 2900 2902 2904 2907 2909 2911 2913 2915 2916 2918 2919 2921 2923 2926 2929 2932 2934 2936 2938 2940 2942 2944 2946 2947 2949 2951 2954 2957 2959 2962 2964 2967 2970 2973 2976 2979 2982 2984 2987 2990 2993 2995 2998 3000 3003 3005 3008 3010 3013 3015 3017 3020 3022 3025 3027 3029 3031 3034 3036 3038 3041 3043 3046
2874 2875 2875 2875 2876 2876 2876 2877 2878 2879 2879 2881 2882 2884 2885 2887 2889 2890 2892 2893 2895 2897 2898 2899 2901 2903 2905 2907 2910 2912 2914 2915 2917 2918 2920 2922 2924 2927 2930 2932 2934 2936 2939 2941 2943 2945 2946 2948 2950 2952 2954 2957 2960 2963 2966 2968 2970 2973 2976 2979 2982 2985 2988 2991 2993 2996 2998 3000 3003 3006 3009 3011 3013 3015 3018 3020 3022 3024 3026 3029 3031 3033 3036 3038 3041 3044
2874 2874 2875 2875 2876 2876 2876 2877 2877 2878 2879 2880 2882 2883 2884 2886 2888 2889 2891 2892 2894 2895 2897 2898 2899 2901 2903 2906 2908 2910 2912 2914 2915 2917 2919 2920 2923 2925 2928 2929 2932 2934 2937 2940 2943 2945 2947 2948 2949 2950 2952 2955 2958 2962 2964 2967 2969 2971 2974 2977 2980 2984 2986 2989 2991 2994 2996 2999 3001 3004 3006 3009 3011 3013 3016 3018 3020 3022 3024 3026 3028 3030 3032 3035 3037 3040
2874 2874 2874 2875 2876 2876 2876 2876 2877 2878 2879 2880 2881 2882 2884 2885 2887 2889 2890 2892 2893 2894 2895 2897 2898 2900 2902 2905 2907 2909 2911 2913 2914 2916 2918 2919 2921 2924 2926 2928 2929 2933 2936 2939 2942 2944 2946 2947 2949 2951 2953 2955 2957 2959 2962 2965 2967 2969 2972 2975 2978 2981 2983 2986 2989 2992 2994 2997 2999 3002 3004 3007 3009 3011 3014 3015 3018 3019 3021 3024 3026 3028 3030 3032 3034 3037
2873 2874 2874 2875 2875 2876 2876 2876 2877 2877 2878 2879 2880 2882 2883 2885 2887 2888 2890 2891 2892 2894 2895 2896 2897 2899 2901 2904 2906 2908 2911 2913 2914 2916 2917 2919 2920 2923 2925 2926 2929 2932 2935 2937 2939 2941 2943 2945 2948 2950 2953 2955 2957 2959 2961 2963 2966 2968 2970 2973 2975 2977 2980 2984 2987 2990 2992 2995 2998 3000 3002 3004 3007 3009 3011 3013 3015 3018 3019 3022 3024 3027 3029 3031 3033 3035
2874 2874 2874 2875 2875 2875 2876 2876 2877 2877 2878 2879 2880 2881 2883 2884 2886 2888 2889 2890 2892 2893 2894 2895 2897 2899 2901 2903 2905 2908 2910 2913 2914 2915 2916 2918 2920 2922 2924 2926 2928 2931 2934 2936 2938 2940 2942 2945 2947 2949 2951 2953 2955 2957 2959 2962 2964 2967 2969 2971 2973 2976 2979 2983 2985 2988 2990 2993 2996 2998 3000 3002 3004 3007 3009 3011 3013 3016 3018 3021 3023 3025 3027 3029 3032 3034
2874 2874 2875 2875 2875 2876 2876 2876 2877 2877 2878 2878 2879 2881 2882 2884 2885 2887 2889 2890 2891 2892 2894 2894 2896 2898 2899 2902 2904 2907 2910 2913 2914 2914 2915 2917 2919 2921 2924 2925 2927 2930 2933 2934 2937 2939 2942 2945 2947 2949 2950 2951 2953 2955 2958 2960 2963 2965 2967 2969 2971 2974 2977 2979 2982 2985 2988 2990 2993 2995 2997 3000 3002 3004 3007 3009 3011 3014 3016 3019 3021 3024 3025 3027 3029 3031
2874 2875 2875 2876 2876 2876 2876 2876 2876 2877 2878 2878 2879 2880 2882 2884 2885 2887 2888 2889 2891 2892 2893 2894 2895 2897 2899 2902 2904 2907 2909 2912 2913 2913 2915 2917 2919 2921 2923 2925 2927 2930 2932 2934 2936 2938 2940 2943 2945 2947 2949 2951 2953 2955 2957 2959 2961 2963 2965 2968 2970 2972 2974 2976 2979 2981 2984 2988 2990 2993 2995 2997 3000 3002 3005 3008 3010 3012 3014 3017 3019 3021 3024 3026 3028 3030
2875 2876 2876 2876 2876 2876 2876 2876 2876 2877 2877 2878 2879 2880 2882 2883 2884 2886 2887 2889 2890 2892 2893 2894 2895 2897 2899 2902 2904 2907 2909 2910 2911 2912 2914 2917 2919 2921 2922 2924 2927 2929 2931 2933 2935 2937 2939 2941 2944 2946 2948 2950 2952 2954 2956 2958 2959 2961 2964 2966 2969 2971 2974 2976 2978 2980 2982 2985 2988 2991 2993 2995 2998 3000 3003 3006 3008 3010 3013 3015 3018 3020 3022 3024 3026 3028
2876 2876 2877 2877 2877 2876 2876 2876 2877 2877 2878 2878 2879 2880 2881 2883 2884 2885 2887 2888 2890 2891 2893 2894 2895 2896 2898 2900 2903 2906 2908 2909 2909 2911 2914 2917 2919 2920 2922 2923 2925 2928 2930 2932 2934 2937 2939 2941 2943 2945 2947 2949 2951 2953 2954 2956 2958 2960 2962 2964 2966 2969 2972 2975 2978 2979 2981 2983 2985 2988 2991 2993 2996 2998 3001 3003 3006 3009 3012 3014 3016 3018 3019 3021 3023 3025
2877 2877 2877 2877 2877 2877 2877 2877 2877 2877 2878 2879 2879 2880 2881 2882 2884 2885 2886 2888 2889 2891 2892 2894 2894 2896 2898 2899 2902 2904 2906 2907 2909 2911 2914 2916 2918 2920 2921 2922 2924 2927 2929 2931 2933 2935 2938 2940 2943 2944 2946 2947 2949 2951 2954 2955 2957 2959 2961 2963 2965 2968 2970 2973 2976 2978 2980 2982 2984 2987 2989 2991 2993 2996 2998 3001 3004 3007 3010 3012 3014 3016 3018 3020 3022 3024
2877 2877 2878 2878 2878 2877 2877 2877 2877 2878 2878 2879 2879 2880 2881 2882 2883 2884 2886 2887 2889 2890 2892 2893 2894 2896 2898 2899 2901 2903 2905 2906 2908 2911 2914 2916 2918 2919 2920 2922 2924 2926 2928 2930 2933 2934 2936 2939 2941 2944 2945 2946 2947 2949 2952 2954 2956 2958 2960 2962 2964 2966 2968 2971 2974 2976 2979 2982 2984 2985 2987 2989 2991 2993 2995 2999 3002 3005 3008 3011 3013 3015 3017 3019 3021 3022
2878 2878 2878 2878 2878 2878 2878 2878 2878 2878 2879 2879 2880 2880 2881 2882 2883 2884 2885 2886 2887 2889 2890 2892 2894 2895 2897 2899 2900 2902 2904 2905 2908 2910 2913 2916 2918 2919 2920 2922 2923 2925 2927 2930 2932 2934 2935 2937 2939 2942 2944 2945 2947 2949 2951 2953 2955 2957 2959 2961 2963 2965 2967 2970 2972 2975 2977 2980 2982 2984 2986 2988 2990 2992 2994 2997 3000 3003 3006 3009 3012 3014 3016 3018 3020 3021
2878 2878 2879 2879 2879 2879 2878 2878 2878 2879 2879 2879 2880 2880 2881 2881 2882 2883 2884 2885 2886 2888 2889 2891 2893 2894 2897 2898 2900 2901 2904 2905 2908 2910 2913 2915 2917 2919 2920 2921 2923 2924 2926 2929 2931 2934 2936 2938 2939 2941 2943 2945 2946 2948 2949 2951 2954 2956 2958 2960 2962 2964 2966 2968 2971 2973 2975 2977 2980 2982 2985 2987 2990 2993 2995 2997 2999 3001 3004 3008 3010 3013 3014 3016 3018 3020
2878 2879 2879 2879 2879 2879 2879 2879 2879 2879 2879 2879 2880 2880 2880 2881 2881 2882 2883 2884 2885 2886 2888 2890 2892 2894 2896 2898 2900 2902 2903 2905 2907 2909 2912 2914 2916 2918 2919 2920 2922 2924 2925 2927 2930 2932 2934 2936 2939 2941 2942 2944 2945 2947 2949 2950 2951 2954 2956 2959 2961 2963 2964 2966 2969 2971 2973 2975 2978 2980 2983 2985 2988 2991 2994 2996 2998 3000 3003 3006 3009 3011 3013 3014 3017 3019